HORS 3 (RS81S)

Last updated on Mon Nov 03 2025 00:03:22 GMT+0000 (Coordinated Universal Time)

1 61753U 24199U 25306.55901381 .00025196 00000+0 63482-3 0 9993 2 61753 97.3281 174.9771 0010641 38.7196 321.4811 15.39822707102519
UTC large
Height (km)
Speed (km/s)
/
Latitude / Longitude
Inclination (degrees)
Orbital Period (minutes)
Azimuth
Elevation
Range (km)
Doppler Factor

Next 0 passes for location: London (51.5072 / 0.1276)

Sorry there are no passes over London.